Regional Weather Roundup
Issued by NWS

Home | Current Version | Previous Version | Text Only | Print | Product List | Glossary On
Versions: 1 2 3 4 5 6 7 8 9 10 11 12 13 14 15 16 17 18 19 20 21 22 23 24 25 26 27 28 29 30 31 32 33 34 35 36 37 38 39 40 41 42 43 44 45 46 47 48 49 50
000
ASUS43 KLOT 262303
RWRIL

ILLINOIS REGIONAL WEATHER ROUNDUP
NATIONAL WEATHER SERVICE CHICAGO/ROMEOVILLE IL
600 PM CDT WED APR 26 2017

NOTE: "FAIR" INDICATES FEW OR NO CLOUDS BELOW 12,000 FEET WITH NO
SIGNIFICANT WEATHER AND/OR OBSTRUCTIONS TO VISIBILITY.

* THESE STATIONS ARE NOT UNDER NWS QUALITY CONTROL. THEY ALSO MAY NOT
  REPORT WEATHER SUCH AS PRECIPITATION OR FOG.

ILZ001-002-007-009-015-016-024-270000-
NORTHWEST ILLINOIS

CITY           SKY/WX    TMP DP  RH WIND       PRES   REMARKS
MOLINE         CLOUDY    52  47  83 W8        29.51F
STERLING*      CLOUDY    53  50  89 W9        29.51S
SAVANNA*       RAIN      52  48  85 W9        29.51F
$$

ILZ003-004-008-010-011-017-018-270000-
NORTH CENTRAL ILLINOIS

CITY           SKY/WX    TMP DP  RH WIND       PRES   REMARKS
ROCKFORD       CLOUDY    58  52  80 SW10      29.51S
FREEPORT*      CLOUDY    52  49  91 W10G16    29.53R
ROCHELLE*      CLOUDY    56  54  91 W14       29.51R
DE KALB*       CLOUDY    60  56  85 W13       29.50S
PERU*          CLOUDY    58  54  85 W13G18    29.51S
$$

ILZ005-006-012>014-019>023-270000-
NORTHEAST ILLINOIS

CITY           SKY/WX    TMP DP  RH WIND       PRES   REMARKS
CHICAGO-OHARE  CLOUDY    70  57  63 W10       29.46F
CHICAGO-MIDWAY CLOUDY    73  56  54 W12       29.47F
AURORA         CLOUDY    64  59  83 SW8       29.50S
LANSING*       CLOUDY    74  58  58 SW13G20   29.49S
JOLIET*        CLOUDY    70  60  69 W7        29.50R
WAUKEGAN       CLOUDY    68  58  70 SW6G17    29.47S
DUPAGE AIRPORT CLOUDY    66  60  81 W12       29.48S
KANKAKEE*      CLOUDY    72  53  52 SW15G24   29.51S
WHEELING       CLOUDY    70  58  65 W10       29.48F
MORRIS*        PTSUNNY   67  56  69 SW8       29.48S
NORTHERLY ISL    N/A     74  50  42 S10         N/A
$$

LMZ740>746-270000-
SOUTHERN LAKE MICHIGAN

STATION/POSITION SKY/WX   TEMP    WIND        PRES    VSBY  WAVE
                          AIR SEA DIR/SP/G                  HT/PER
                          (F)     (DEG/KT/KT) (MB)    (MI)  (FT/S)
SOUTHERN BUOY              50 42  170/  8/ 10  998.7          1/ 4
HARRISON CRIB              74     220/ 18/ 21   N/A
BURNHAM HARBOR             74     220/ 10/ 17   N/A
CALUMET HARBOR             74     210/  8/ 13  997.8F
BURNS HARBOR               73     230/  9/ 19  999.0S
MICHIGAN CITY              65     230/ 11/ 12   N/A
MICHIGAN CITY 6N           60 49                N/A           1/ 3
ST. JOSEPH                 57 49  200/  4/  8  999.1R         1/ 3
$$

ILZ025>027-034>036-040-047-049-050-058-095>099-270000-
WEST-CENTRAL ILLINOIS

CITY           SKY/WX    TMP DP  RH WIND       PRES   REMARKS
QUINCY         CLOUDY    51  48  89 N9        29.50F
GALESBURG*     CLOUDY    50  47  90 NW8       29.51R
MACOMB*        CLOUDY    51  49  93 N10       29.52S
JACKSONVILLE*  CLOUDY    56  55  96 NW7       29.48F
PITTSFIELD*    DRIZZLE   53  53  98 N10       29.49F
$$

ILZ028>032-037-038-041>044-048-051>054-059>061-270000-
CENTRAL ILLINOIS

CITY           SKY/WX    TMP DP  RH WIND       PRES   REMARKS
PONTIAC        DRIZZLE   68  59  73 SW6       29.47F
BLOOMINGTON    CLOUDY    62  59  90 SW6       29.48F
DECATUR        CLOUDY    63  62  97 S3        29.48S
PEORIA         CLOUDY    56  54  93 N6        29.49F
LACON*         CLOUDY    57  55  91 NW7       29.48F
LINCOLN*       LGT RAIN  63  62  96 CALM      29.47S
SPRINGFIELD    LGT RAIN  64  60  87 W7        29.47F FOG
TAYLORVILLE    LGT RAIN  62  60  95 S5        29.48F
$$

ILZ033-039-045-046-055>057-062-063-270000-
EAST-CENTRAL ILLINOIS

CITY           SKY/WX    TMP DP  RH WIND       PRES   REMARKS
CHAMPAIGN      CLOUDY    65  60  84 SW8       29.50F
RANTOUL*       CLOUDY    67  62  83 W6        29.48F
MATTOON        CLOUDY    64  61  90 SW3       29.50R
PARIS*         CLOUDY    64  62  92 SW8       29.52F THUNDER
$$

ILZ079-100>102-270000-
SOUTHWEST ILLINOIS

CITY           SKY/WX    TMP DP  RH WIND       PRES   REMARKS
ALTON          LGT RAIN  61  59  94 E15       29.44F
BELLEVILLE     LGT RAIN  62  62 100 E10       29.46F
CAHOKIA*       RAIN      63  59  87 S6        29.46F
SPARTA*        CLOUDY    61  61 100 S3        29.51S
$$

ILZ064>066-069>071-074>076-080>082-084>086-088>090-092>094-270000-
SOUTH-CENTRAL ILLINOIS

CITY           SKY/WX    TMP DP  RH WIND       PRES   REMARKS
CARBONDALE     NOT AVBL
CAIRO*         LGT RAIN  60  59  95 NE7       29.51F
EFFINGHAM*     CLOUDY    64  62  93 CALM      29.52F
MARION         HVY RAIN  61  61 100 NE12      29.50F
MT. VERNON     HVY RAIN  61  60  97 VRB7      29.50F
CENTRALIA*     CLOUDY    62  62  97 CALM      29.51R
SALEM*         LGT RAIN  63  61  93 CALM      29.51R
METROPOLIS*    CLOUDY    65  58  76 NW9       29.54R
$$

ILZ067-068-072-073-078-083-087-091-270000-
SOUTHEAST ILLINOIS

CITY           SKY/WX    TMP DP  RH WIND       PRES   REMARKS
LAWRENCEVILLE  CLOUDY    64  60  87 NW10      29.51F
FLORA*         LGT RAIN  63  60  91 CALM      29.52F
FAIRFIELD*     CLOUDY    62  60  92 NE3       29.49F
HARRISBURG*    CLOUDY    63  58  84 NE6       29.49F
ROBINSON*      CLOUDY    62  61  96 N6        29.52F
CARMI*         CLOUDY    64  60  87 NW9       29.50F
$$

ABBREVIATIONS USED IN REMARKS
   TC - TEMPERATURE IN CELSIUS
  WCI - WIND CHILL INDEX
   HX - HEAT INDEX
  VSB - VISIBILITY
$$





USA.gov is the U.S. government's official web portal to all federal, state and local government web resources and services.